[[{"header":{"parameterUnit":"m.s-1","parameterCategory":1,"la1":30.2991,"la2":30.254,"lo1":-89.0895,"lo2":-89.0444,"dy":0.0017,"dx":0.0017,"nx":28,"ny":28,"refTime":"2025-08-27T21:00:00:Z","depth":0,"parameterNumber":2,"parameterNumberName":"U-component_of_WINDS"},"data":[0,0,0,0,0,0,0,0,0,0,0,0,0,0,0,0,0,0,0,0,0,0,0,0,0,0,0,0,0,0,0,0,0,0,0,0,0,0,0,0,0,0,0,0,0,0,0,0,0,0,0,0,0,0,0,0,0,0,2.4524,2.4524,0,2.4535,2.4536,2.4536,2.4502,2.4501,2.4499,2.4498,2.4512,2.4513,2.4515,0,0,0,0,0,0,0,0,0,0,0,0,0,2.4475,2.4476,2.4524,2.4524,2.4525,2.4535,2.4536,2.4536,2.4502,2.45,2.4499,2.4498,2.4511,2.4513,2.4515,0,0,0,0,0,0,0,0,0,0,0,0,0,2.4492,2.4476,2.4524,2.4509,2.4508,2.4535,2.4536,2.4536,2.4502,2.45,2.4499,2.4497,2.4511,2.4513,2.4515,2.4559,0,0,2.4521,2.4522,0,0,0,0,0,0,0,0,2.4491,2.4494,2.4511,2.451,2.4509,2.4515,2.4523,2.4544,2.4502,2.4504,2.4498,2.4497,2.4515,2.4516,2.4522,2.4559,2.456,2.4521,2.4522,2.4523,2.4524,0,0,0,0,0,0,0,2.449,2.4493,2.4529,2.4511,2.451,2.4502,2.4503,2.4527,2.4518,2.4504,2.4501,2.4503,2.4514,2.452,2.4522,2.456,2.4521,2.4523,2.4524,2.4525,2.4632,2.4634,0,0,0,0,0,0,2.4491,2.4493,2.4528,2.4529,2.4496,2.4504,2.4505,2.4515,2.4518,2.4517,2.4504,2.4502,2.4517,2.4519,2.4522,2.4572,2.4523,2.4525,2.4526,2.4631,2.4633,2.4635,0,0,0,0,0,0,2.449,2.4494,2.4528,2.451,2.4514,2.4506,2.4518,2.4516,2.4522,2.4518,2.4517,2.4512,2.4516,2.4519,2.4549,2.4572,2.4526,2.4528,2.4629,2.4631,2.4634,2.4673,0,0,0,0,0,0,2.4489,2.4494,2.451,2.4511,2.4515,2.4555,2.452,2.4517,2.4525,2.4522,2.4525,2.4524,2.4515,2.4546,2.4551,2.4574,2.4529,2.4627,2.463,2.4633,2.467,2.4677,2.4683,0,0,0,0,0,2.4487,2.4522,2.4511,2.4516,2.4535,2.4556,2.4559,2.4547,2.4527,2.4544,2.4541,2.4524,2.4569,2.455,2.4555,2.4579,2.4625,2.4629,2.4633,2.4667,2.4675,2.4683,0,0,0,0,0,0,2.4526,2.4522,2.451,2.4546,2.4552,2.455,2.4571,2.4556,2.4568,2.4564,2.4549,2.4551,2.4583,2.4584,2.4563,2.462,2.4594,2.4599,2.4618,2.4626,2.4633,2.4631,2.4531,0,0,0,0,0,2.4538,2.4555,2.4551,2.4584,2.4587,2.4578,2.4587,2.4577,2.4583,2.4585,2.4584,2.4591,2.4606,2.4616,2.463,2.467,2.467,2.4689,2.4695,2.4701,2.4705,2.4724,2.4732,2.4647,2.4647,2.4647,0,0,2.4565,2.4565,2.4577,2.4591,2.4594,2.4612,2.458,2.4601,2.4614,2.4588,2.4616,2.4616,2.4622,2.4656,2.4672,2.4658,2.4728,2.4706,2.471,2.4711,2.4729,2.4737,2.4744,2.4649,2.4649,2.4648,0,0,2.4622,2.4624,2.465,2.4653,2.4658,2.4652,2.4658,2.4659,2.4657,2.4685,2.4665,2.4681,2.4708,2.4713,2.4718,2.4776,2.476,2.4781,2.4814,2.4834,2.484,2.4846,2.4865,2.4872,2.4786,2.4786,2.4786,0,2.4654,2.4679,2.4666,2.4687,2.4694,2.467,2.4696,2.4701,2.471,2.4715,2.47,2.4732,2.4735,2.4769,2.4783,2.479,2.4796,2.478,2.484,2.4846,2.4851,2.4869,2.4877,2.4788,2.4788,2.4787,2.4787,0,2.4718,2.4736,2.4757,2.4765,2.4774,2.4798,2.4788,2.4799,2.4789,2.4784,2.4812,2.4814,2.4827,2.4835,2.4826,2.4868,2.4859,2.4843,2.4815,2.4862,2.4879,2.4886,2.4791,2.4791,2.479,2.4789,0,0,2.48,2.4799,2.4807,2.4809,2.4812,2.4826,2.4849,2.4861,2.487,2.4877,2.4895,2.4918,2.4902,2.4909,2.49,2.4917,2.496,2.4898,2.4898,2.4908,2.5005,2.5017,2.5025,2.495,2.4952,2.4953,2.5004,0,2.4855,2.4892,2.488,2.4918,2.4933,2.4911,2.4931,2.4935,2.4931,2.4944,2.4941,2.4957,2.4935,2.4939,2.4955,2.4952,2.4979,2.4948,2.4966,2.4967,2.4964,2.5034,2.5046,2.5095,2.5011,2.5012,2.5013,0,2.4923,2.4931,2.4971,2.4969,2.4976,2.4993,2.5002,2.5015,2.5019,2.5016,2.5022,2.5009,2.5031,2.5005,2.5034,2.5013,2.502,2.502,2.5021,2.5022,2.4992,2.5035,2.511,2.5117,2.5023,2.5022,2.5022,0,2.4976,2.4998,2.5023,2.5027,2.5026,2.5039,2.504,2.5042,2.5049,2.5058,2.5062,2.5074,2.508,2.5089,2.5079,2.5061,2.511,2.5083,2.5107,2.5107,2.5117,2.5116,2.5193,2.5124,2.5124,2.5124,2.5124,0,2.5038,2.5062,2.5047,2.5063,2.5089,2.5075,2.5102,2.5101,2.5103,2.5117,2.51,2.5114,2.5101,2.5115,2.5107,2.5132,2.5136,2.5133,2.513,2.5133,2.5133,2.5137,2.5132,2.5126,2.5126,2.5125,2.5125,0,2.5102,2.5092,2.5119,2.5116,2.5116,2.5135,2.5133,2.5147,2.5142,2.5161,2.5165,2.5157,2.5172,2.5163,2.5179,2.5174,2.5205,2.5199,2.5204,2.5201,2.5225,2.5222,2.5305,2.5315,2.5241,2.5242,2.5243,0,2.5141,2.5159,2.5157,2.5165,2.5167,2.518,2.5187,2.5175,2.5183,2.5188,2.5201,2.5214,2.5224,2.5248,2.5244,2.5256,2.5249,2.5277,2.525,2.5252,2.5247,2.5245,2.5246,2.5282,2.5283,2.5284,2.5284,0,2.521,2.5204,2.5215,2.5224,2.5232,2.5239,2.5244,2.5252,2.5239,2.5249,2.5263,2.527,2.5285,2.5298,2.5307,2.5308,2.5294,2.5293,2.5298,2.5301,2.5302,2.53,2.5217,2.5291,2.529,2.529,2.5289,2.5289,2.5262,2.5276,2.5276,2.5288,2.5291,2.5296,2.5308,2.5304,2.5316,2.5326,2.5318,2.5334,2.5337,2.5348,2.5351,2.5363,2.5352,2.5361,2.5363,2.5364,2.5367,2.5301,2.5365,2.5365,2.5365,2.5365,2.5365,0,2.5329,2.5328,2.5339,2.5346,2.5355,2.534,2.5345,2.5354,2.5368,2.5371,2.5381,2.5396,2.5408,2.5405,2.5416,2.5426,2.542,2.5429,2.5428,2.5428,2.5377,2.537,2.5434,2.5434,2.5434,2.5434,2.5434,2.5434,2.5365,2.5387,2.5382,2.5405,2.5404,2.5419,2.5423,2.5427,2.543,2.5447,2.5457,2.5454,2.5455,2.5465,2.5475,2.5474,2.5478,2.549,2.5486,2.5439,2.5432,2.5425,2.5418,2.5491,2.5491,2.5535,2.5535,2.5536]},{"header":{"parameterUnit":"m.s-1","parameterCategory":1,"la1":30.2991,"la2":30.254,"lo1":-89.0895,"lo2":-89.0444,"dy":0.0017,"dx":0.0017,"nx":28,"ny":28,"refTime":"2025-08-27T21:00:00:Z","depth":0,"parameterNumber":3,"parameterNumberName":"V-component_of_WINDS"},"data":[0,0,0,0,0,0,0,0,0,0,0,0,0,0,0,0,0,0,0,0,0,0,0,0,0,0,0,0,0,0,0,0,0,0,0,0,0,0,0,0,0,0,0,0,0,0,0,0,0,0,0,0,0,0,0,0,0,0,2.6002,2.6001,0,2.5916,2.5915,2.5914,2.5849,2.5849,2.5848,2.5848,2.5757,2.5755,2.5754,0,0,0,0,0,0,0,0,0,0,0,0,0,2.6107,2.6105,2.6002,2.6001,2.6,2.5916,2.5915,2.5914,2.585,2.5849,2.5848,2.5848,2.5758,2.5756,2.5753,0,0,0,0,0,0,0,0,0,0,0,0,0,2.6045,2.6105,2.6002,2.5958,2.5953,2.5917,2.5915,2.5914,2.585,2.5849,2.5848,2.5847,2.5759,2.5756,2.5753,2.5753,0,0,2.5744,2.5743,0,0,0,0,0,0,0,0,2.6049,2.6041,2.5965,2.5961,2.5955,2.5893,2.5919,2.586,2.585,2.5889,2.5848,2.5847,2.5803,2.5796,2.5782,2.5749,2.5745,2.5744,2.5743,2.5741,2.5741,0,0,0,0,0,0,0,2.6053,2.6045,2.5968,2.5964,2.5958,2.5941,2.5931,2.5908,2.5852,2.5885,2.588,2.5871,2.58,2.5785,2.5779,2.5744,2.5744,2.5742,2.574,2.5739,2.5707,2.5708,0,0,0,0,0,0,2.6065,2.6049,2.5971,2.5965,2.6001,2.594,2.5929,2.5914,2.5852,2.5842,2.5872,2.5869,2.579,2.5783,2.5776,2.5772,2.5741,2.5739,2.5737,2.5706,2.5707,2.5708,0,0,0,0,0,0,2.6067,2.6058,2.5974,2.6006,2.5994,2.5939,2.5922,2.5912,2.5897,2.5842,2.5831,2.5867,2.5789,2.578,2.576,2.5768,2.5737,2.5735,2.5705,2.5706,2.5708,2.5764,0,0,0,0,0,0,2.6071,2.606,2.606,2.6006,2.5992,2.596,2.5923,2.5911,2.5893,2.5888,2.5835,2.5825,2.5788,2.5764,2.5757,2.5763,2.5733,2.5704,2.5706,2.5707,2.5761,2.5767,2.5772,0,0,0,0,0,2.6075,2.6078,2.606,2.6051,2.5991,2.596,2.5952,2.591,2.5894,2.5893,2.5858,2.5827,2.5769,2.5763,2.5754,2.576,2.5703,2.5705,2.5707,2.5759,2.5766,2.5772,0,0,0,0,0,0,2.6132,2.607,2.6049,2.6036,2.6004,2.595,2.5947,2.5919,2.5891,2.5887,2.5835,2.5824,2.5809,2.5782,2.5777,2.5757,2.5732,2.5732,2.5774,2.5781,2.5786,2.5792,2.573,0,0,0,0,0,2.6144,2.6125,2.6072,2.6065,2.605,2.6002,2.5987,2.5958,2.5922,2.5908,2.5871,2.5837,2.5811,2.5795,2.5768,2.5758,2.5745,2.5758,2.5763,2.5768,2.5768,2.5761,2.5765,2.5714,2.5714,2.5714,0,0,2.6167,2.6131,2.6122,2.6076,2.6047,2.6028,2.5991,2.5972,2.5957,2.5904,2.5883,2.5855,2.5814,2.5799,2.579,2.5776,2.578,2.577,2.5775,2.5772,2.5763,2.5768,2.5772,2.5715,2.5715,2.5715,0,0,2.6198,2.617,2.6161,2.6134,2.6093,2.6061,2.6059,2.6009,2.5988,2.5967,2.5927,2.5909,2.5865,2.5837,2.5817,2.5841,2.5811,2.5834,2.5861,2.5855,2.5859,2.5862,2.5869,2.5873,2.5834,2.5834,2.5835,0,2.6231,2.6202,2.616,2.6143,2.6124,2.6078,2.6068,2.6044,2.5996,2.5983,2.5969,2.5914,2.5883,2.586,2.5866,2.5852,2.5848,2.5838,2.5862,2.5865,2.5867,2.5873,2.5876,2.5837,2.5837,2.5837,2.5837,0,2.6244,2.6225,2.6222,2.6178,2.6159,2.6146,2.6101,2.6087,2.606,2.603,2.6008,2.597,2.5934,2.5927,2.59,2.5901,2.5894,2.5872,2.5845,2.5876,2.5881,2.5883,2.5842,2.5841,2.584,2.5839,0,0,2.6307,2.6242,2.6241,2.6221,2.6173,2.6156,2.6142,2.6108,2.6096,2.6065,2.6051,2.6016,2.5996,2.5973,2.5943,2.5938,2.5958,2.5916,2.5914,2.5924,2.5956,2.5972,2.5975,2.5939,2.5939,2.5939,2.5959,0,2.633,2.6302,2.6264,2.6248,2.6229,2.6186,2.6173,2.6142,2.6114,2.6093,2.6061,2.6037,2.6012,2.5999,2.5992,2.5957,2.5963,2.5955,2.5924,2.5923,2.5934,2.5978,2.5995,2.6015,2.5961,2.5961,2.5961,0,2.6352,2.6325,2.6307,2.6262,2.6252,2.6241,2.6208,2.6189,2.6153,2.6133,2.6109,2.6077,2.6059,2.6037,2.6011,2.6006,2.5992,2.5973,2.5973,2.5966,2.5943,2.5972,2.602,2.6023,2.5964,2.5964,2.5964,0,2.6398,2.6357,2.6341,2.6325,2.6272,2.6265,2.6243,2.6206,2.6188,2.6159,2.6148,2.6117,2.6099,2.6076,2.6036,2.6024,2.6014,2.5989,2.5996,2.5997,2.5994,2.5994,2.6039,2.5987,2.5987,2.5987,2.5987,0,2.6427,2.6417,2.6361,2.6352,2.634,2.6297,2.6287,2.626,2.6228,2.6212,2.6173,2.6158,2.6108,2.6087,2.6056,2.6039,2.6032,2.6014,2.6005,2.6016,2.6018,2.6004,2.6001,2.5988,2.5988,2.5988,2.5988,0,2.6475,2.6438,2.6417,2.6369,2.6357,2.6351,2.6309,2.6297,2.6268,2.6248,2.6241,2.6194,2.6168,2.6127,2.6088,2.6067,2.6055,2.6042,2.6067,2.6062,2.607,2.607,2.6106,2.6108,2.6058,2.6058,2.6059,0,2.6495,2.6487,2.6438,2.6425,2.6405,2.6384,2.6366,2.6325,2.6308,2.6267,2.6261,2.6232,2.6206,2.6167,2.6128,2.6099,2.6084,2.6099,2.6079,2.609,2.6082,2.6083,2.6081,2.6103,2.6104,2.6104,2.6105,0,2.6533,2.6515,2.6492,2.6463,2.6444,2.6419,2.6391,2.6383,2.6335,2.6318,2.6292,2.6272,2.6234,2.6205,2.6171,2.6146,2.6117,2.6112,2.6112,2.6122,2.6136,2.6127,2.6078,2.6111,2.611,2.611,2.6109,2.6109,2.6566,2.6557,2.6522,2.6498,2.6474,2.645,2.6437,2.6407,2.6384,2.635,2.6327,2.6302,2.6267,2.6217,2.6195,2.6174,2.6161,2.6161,2.6161,2.6161,2.6165,2.6142,2.6168,2.6168,2.6168,2.6167,2.6167,0,2.6601,2.6577,2.6556,2.6519,2.6501,2.6478,2.6447,2.6432,2.6411,2.6381,2.6357,2.6327,2.63,2.6261,2.623,2.6221,2.6207,2.6215,2.6214,2.6209,2.6178,2.6181,2.6226,2.6226,2.6226,2.6226,2.6226,2.6226,2.6617,2.66,2.6579,2.655,2.6526,2.6502,2.6486,2.6464,2.644,2.6408,2.6386,2.6361,2.6328,2.6295,2.6269,2.6258,2.6248,2.6259,2.6244,2.6216,2.6211,2.6205,2.6208,2.6258,2.6258,2.6276,2.6276,2.6276]}]]